Regional Weather Roundup
Issued by NWS

Home | Current Version | Previous Version | Text Only | Print | Product List | Glossary On
Versions: 1 2 3 4 5 6 7 8 9 10 11 12 13 14 15 16 17 18 19 20 21 22 23 24 25 26 27 28
000
ASPQ40 PGUM 180112
RWRPQ
WEATHER ROUNDUP FOR THE MARIANAS AND MICRONESIA
NATIONAL WEATHER SERVICE TIYAN GU
1100 AM GSST FRI APR 18 2014

GUZ001>004-180200-
MARIANA ISLANDS-

CITY           SKY/WX    TMP DP  RH WIND       PRES   REMARKS
GUAM AIRPORT   MOSUNNY   88  75  66 E13G21    29.82F HX  97
ANDERSEN AFB   LGT RAIN  84  77  79 NE13      29.83F HX  94
ROTA AIRPORT   PTSUNNY   82  77  83 E14       29.84S HX  91
TINIAN AP      PTSUNNY   84  75  74 NE15      29.81F HX  92
SAIPAN AP      MOSUNNY   84  77  79 E13       29.82F HX  94

$$

PMZ161-180200-
REPUBLIC OF PALAU-

CITY           SKY/WX    TMP DP  RH WIND       PRES   REMARKS
KOROR AP       PTSUNNY   86  79  79 W7        29.83R HX  99
KOROR WSO      CLOUDY    88  75  66 N10       29.83R HX  97

$$

PMZ171>174-180200-
FEDERATED STATES OF MICRONESIA-

CITY           SKY/WX    TMP DP  RH WIND       PRES   REMARKS
YAP AIRPORT    NOT AVBL
CHUUK AP       PTSUNNY   84  79  84 S8        29.81F HX  96
POHNPEI AP     CLOUDY    84  77  79 NE9       29.80F HX  94
POHNPEI WSO    CLOUDY    84  77  79 NE6       29.86  HX  94
KOSRAE AP      CLOUDY    86  75  70 N6        29.82F HX  95

$$

PMZ181-180200-
REPUBLIC OF THE MARSHALL ISLANDS-

CITY           SKY/WX    TMP DP  RH WIND       PRES   REMARKS
KWAJALEIN AP   MOSUNNY   86  75  70 E17       29.84F HX  95
MAJURO AP      NOT AVBL
MAJURO WSO     CLOUDY    84  77  79 NE14      29.81F HX  94

$$




USA.gov is the U.S. government's official web portal to all federal, state and local government web resources and services.